W6MAF Weather Reports


Display with metric or nautical units.
time (UTC)temp
F
wind
direction
speed
MPH
gust
MPH
rain 1hr
in
rain 24hr
in
rain mn
in
humidity
%
barometer
mb
20260503013156 73 193 12.0 9.0 0.00 0.00 0.00 6
20260503012659 73 204 18.0 22.0 0.00 0.00 0.00 6
20260503012158 74 212 11.0 20.0 0.00 0.00 0.00 6
20260503011700 74 214 9.0 18.0 0.00 0.00 0.00 6
20260503011202 74 208 15.0 17.0 0.00 0.00 0.00 6
20260503010704 75 203 10.0 11.0 0.00 0.00 0.00 6
20260503010207 75 205 11.0 12.0 0.00 0.00 0.00 5
20260503005709 75 191 17.0 14.0 0.00 0.00 0.00 5
20260503005208 76 190 10.0 10.0 0.00 0.00 0.00 5
20260503004710 76 214 15.0 10.0 0.00 0.00 0.00 5
20260503004213 76 187 13.0 7.0 0.00 0.00 0.00 5
20260503003715 76 228 7.0 15.0 0.00 0.00 0.00 5
20260503003217 76 221 16.0 20.0 0.00 0.00 0.00 5
20260503002218 76 240 8.0 9.0 0.00 0.00 0.00 5
20260503001721 76 201 12.0 12.0 0.00 0.00 0.00 5
20260503001224 76 210 11.0 12.0 0.00 0.00 0.00 5
20260503000725 76 205 14.0 20.0 0.00 0.00 0.00 5
20260503000227 76 205 11.0 8.0 0.00 0.00 0.00 5
20260502235730 76 203 15.0 15.0 0.00 0.00 0.00 5
20260502235229 76 190 10.0 20.0 0.00 0.00 0.00 4
20260502234731 76 207 11.0 12.0 0.00 0.00 0.00 5
20260502234233 77 200 11.0 14.0 0.00 0.00 0.00 5
20260502233736 76 222 15.0 12.0 0.00 0.00 0.00 5
20260502232740 77 203 18.0 21.0 0.00 0.00 0.00 4
20260502232240 77 187 15.0 13.0 0.00 0.00 0.00 4
20260502231741 77 184 21.0 19.0 0.00 0.00 0.00 4
20260502231244 77 200 14.0 20.0 0.00 0.00 0.00 5
20260502230746 77 194 15.0 3.0 0.00 0.00 0.00 5
20260502230248 77 195 14.0 14.0 0.00 0.00 0.00 5
20260502225751 78 195 18.0 11.0 0.00 0.00 0.00 5
20260502225250 78 231 10.0 0.0 0.00 0.00 0.00 4
20260502224753 78 235 15.0 8.0 0.00 0.00 0.00 5
20260502224254 78 179 2.0 10.0 0.00 0.00 0.00 5
20260502223259 78 217 3.0 0.0 0.00 0.00 0.00 5
20260502222300 78 214 8.0 19.0 0.00 0.00 0.00 5
20260502221802 78 183 12.0 0.0 0.00 0.00 0.00 5
20260502221305 78 207 7.0 6.0 0.00 0.00 0.00 4
20260502220807 77 203 10.0 6.0 0.00 0.00 0.00 4
20260502220309 77 176 15.0 8.0 0.00 0.00 0.00 4
20260502215811 78 208 12.0 19.0 0.00 0.00 0.00 4
20260502215310 78 215 16.0 8.0 0.00 0.00 0.00 4
20260502214813 78 150 10.0 5.0 0.00 0.00 0.00 4
20260502214315 78 219 4.0 0.0 0.00 0.00 0.00 4
20260502213817 78 181 6.0 0.0 0.00 0.00 0.00 4
20260502212822 78 190 0.0 0.0 0.00 0.00 0.00 4
20260502212321 78 205 11.0 12.0 0.00 0.00 0.00 4
20260502211823 78 215 5.0 14.0 0.00 0.00 0.00 4
20260502211325 78 184 8.0 8.0 0.00 0.00 0.00 4
20260502210828 78 195 13.0 17.0 0.00 0.00 0.00 4
20260502210330 78 221 7.0 13.0 0.00 0.00 0.00 4
20260502205832 78 176 0.0 0.0 0.00 0.00 0.00 4
20260502205332 78 183 0.0 0.0 0.00 0.00 0.00 5
20260502204834 78 207 5.0 0.0 0.00 0.00 0.00 4
20260502204337 78 173 0.0 0.0 0.00 0.00 0.00 4
20260502203839 78 217 12.0 7.0 0.00 0.00 0.00 4
20260502203340 78 190 0.0 0.0 0.00 0.00 0.00 4
20260502202843 79 158 7.0 0.0 0.00 0.00 0.00 4
20260502202343 78 240 3.0 0.0 0.00 0.00 0.00 5
20260502201844 78 181 0.0 19.0 0.00 0.00 0.00 5
20260502201346 78 165 2.0 0.0 0.00 0.00 0.00 4
20260502200849 78 179 0.0 0.0 0.00 0.00 0.00 5
20260502200351 78 173 8.0 0.0 0.00 0.00 0.00 4
20260502195853 78 221 7.0 9.0 0.00 0.00 0.00 5
20260502195352 78 180 0.0 0.0 0.00 0.00 0.00 4
20260502194855 78 197 0.0 0.0 0.00 0.00 0.00 5
20260502194357 77 211 0.0 0.0 0.00 0.00 0.00 5
20260502193859 78 197 11.0 0.0 0.00 0.00 0.00 5
20260502193402 78 179 6.0 9.0 0.00 0.00 0.00 5
20260502192904 78 205 1.0 0.0 0.00 0.00 0.00 5
20260502192403 77 190 3.0 0.0 0.00 0.00 0.00 5
20260502191905 77 166 5.0 6.0 0.00 0.00 0.00 5
20260502191408 77 160 7.0 0.0 0.00 0.00 0.00 5
20260502190910 77 201 2.0 8.0 0.00 0.00 0.00 5
20260502190412 77 162 7.0 0.0 0.00 0.00 0.00 5
20260502185915 77 184 14.0 16.0 0.00 0.00 0.00 5
20260502185414 77 172 0.0 9.0 0.00 0.00 0.00 5
20260502184418 77 160 1.0 7.0 0.00 0.00 0.00 5
20260502183920 77 195 8.0 0.0 0.00 0.00 0.00 5
20260502183423 77 139 3.0 0.0 0.00 0.00 0.00 5
20260502182424 77 125 9.0 5.0 0.00 0.00 0.00 5
20260502181926 77 158 8.0 8.0 0.00 0.00 0.00 5
20260502181429 77 162 7.0 14.0 0.00 0.00 0.00 5
20260502180931 77 186 7.0 14.0 0.00 0.00 0.00 5
20260502180433 77 172 7.0 0.0 0.00 0.00 0.00 5
20260502170455 76 135 0.0 0.0 0.00 0.00 0.00 5
20260502164003 77 235 0.0 0.0 0.00 0.00 0.00 5
20260502163505 77 235 0.0 0.0 0.00 0.00 0.00 5
20260502163008 76 235 0.0 0.0 0.00 0.00 0.00 5
20260502162507 76 235 0.0 0.0 0.00 0.00 0.00 5
20260502162009 75 235 0.0 0.0 0.00 0.00 0.00 5
20260502161512 75 235 0.0 0.0 0.00 0.00 0.00 6
20260502161014 75 235 0.0 0.0 0.00 0.00 0.00 6
20260502160516 74 235 0.0 0.0 0.00 0.00 0.00 5
20260502152031 71 235 0.0 0.0 0.00 0.00 0.00 8
20260502151533 70 235 0.0 0.0 0.00 0.00 0.00 10
20260502151036 69 235 0.0 0.0 0.00 0.00 0.00 12
20260502150713 68 235 0.0 0.0 0.00 0.00 0.00 12
20260502150538 68 235 0.0 0.0 0.00 0.00 0.00 12
20260502130122 52 235 0.0 0.0 0.00 0.00 0.00 31
20260502123631 53 235 0.0 0.0 0.00 0.00 0.00 30
20260502123134 52 235 0.0 0.0 0.00 0.00 0.00 32
20260502122632 52 235 0.0 0.0 0.00 0.00 0.00 33
20260502122134 52 235 0.0 0.0 0.00 0.00 0.00 34
20260502121637 53 235 0.0 0.0 0.00 0.00 0.00 35
20260502121139 53 235 0.0 0.0 0.00 0.00 0.00 36
20260502120642 0 0.0 0.0 0.00 0.00 0.00
20260502120144 53 235 0.0 0.0 0.00 0.00 0.00 37
20260502115643 53 235 0.0 0.0 0.00 0.00 0.00 38
20260502115145 53 235 0.0 0.0 0.00 0.00 0.00 38
20260502114648 52 235 0.0 0.0 0.00 0.00 0.00 40
20260502114150 53 235 0.0 0.0 0.00 0.00 0.00 41
20260502113652 53 235 0.0 0.0 0.00 0.00 0.00 41
20260502113154 53 235 0.0 0.0 0.00 0.00 0.00 43
20260502112653 53 235 0.0 0.0 0.00 0.00 0.00 44
20260502112156 53 235 0.0 0.0 0.00 0.00 0.00 44
20260502111658 53 235 0.0 0.0 0.00 0.00 0.00 45
20260502111200 53 235 0.0 0.0 0.00 0.00 0.00 46
20260502110703 52 235 0.0 0.0 0.00 0.00 0.00 47
20260502110205 52 235 0.0 0.0 0.00 0.00 0.00 47
20260502105704 53 235 0.0 0.0 0.00 0.00 0.00 47
20260502105206 53 235 0.0 0.0 0.00 0.00 0.00 47
20260502104709 52 235 0.0 0.0 0.00 0.00 0.00 47
20260502104211 53 235 0.0 0.0 0.00 0.00 0.00 47
20260502103713 53 235 0.0 0.0 0.00 0.00 0.00 46
20260502103216 53 235 0.0 0.0 0.00 0.00 0.00 45
20260502102715 53 235 0.0 0.0 0.00 0.00 0.00 47
20260502102217 54 235 0.0 0.0 0.00 0.00 0.00 48
20260502101719 54 235 0.0 0.0 0.00 0.00 0.00 47
20260502100724 54 235 0.0 0.0 0.00 0.00 0.00 49
20260502100226 53 235 0.0 0.0 0.00 0.00 0.00 51
20260502091243 53 235 0.0 0.0 0.00 0.00 0.00 55
20260502090745 53 235 0.0 0.0 0.00 0.00 0.00 55
20260502090248 53 235 0.0 0.0 0.00 0.00 0.00 56
20260502071325 57 235 0.0 0.0 0.00 0.00 0.00 62
20260502070828 57 235 0.0 0.0 0.00 0.00 0.00 63
20260502070330 57 235 0.0 0.0 0.00 0.00 0.00 64
20260502065829 57 235 0.0 0.0 0.00 0.00 0.00 64
20260502065331 57 235 0.0 0.0 0.00 0.00 0.00 64
20260502064834 57 235 0.0 0.0 0.00 0.00 0.00 64
20260502064336 57 235 0.0 0.0 0.00 0.00 0.00 66
20260502063838 57 235 0.0 0.0 0.00 0.00 0.00 68
20260502063341 57 235 0.0 0.0 0.00 0.00 0.00 70
20260502062840 57 235 0.0 0.0 0.00 0.00 0.00 71
20260502062342 57 235 0.0 0.0 0.00 0.00 0.00 71
20260502061844 57 235 0.0 0.0 0.00 0.00 0.00 72
20260502061347 57 235 0.0 0.0 0.00 0.00 0.00 72
20260502060849 57 235 0.0 0.0 0.00 0.00 0.00 72
20260502060351 57 235 0.0 0.0 0.00 0.00 0.00 71
20260502055851 57 235 0.0 0.0 0.00 0.00 0.00 71
20260502055353 57 235 0.0 0.0 0.00 0.00 0.00 70
20260502054357 58 235 0.0 0.0 0.00 0.00 0.00 69
20260502053402 58 179 6.0 0.0 0.00 0.00 0.00 69
20260502052901 58 204 11.0 12.0 0.00 0.00 0.00 69
20260502052403 58 205 12.0 9.0 0.00 0.00 0.00 69
20260502051905 58 179 9.0 11.0 0.00 0.00 0.00 68
20260502051408 58 214 12.0 14.0 0.00 0.00 0.00 67
20260502050910 58 217 11.0 16.0 0.00 0.00 0.00 67
20260502050412 58 224 15.0 7.0 0.00 0.00 0.00 66
20260502045912 58 198 11.0 14.0 0.00 0.00 0.00 67
20260502045414 58 231 15.0 15.0 0.00 0.00 0.00 66
20260502044916 59 235 12.0 15.0 0.00 0.00 0.00 66
20260502044418 59 224 14.0 14.0 0.00 0.00 0.00 65
20260502043959 59 218 13.0 12.0 0.00 0.00 0.00 64
20260502043921 59 218 13.0 12.0 0.00 0.00 0.00 64
20260502043424 59 218 14.0 13.0 0.00 0.00 0.00 63
20260502042922 59 229 15.0 9.0 0.00 0.00 0.00 63
20260502042424 59 215 13.0 12.0 0.00 0.00 0.00 62
20260502041926 59 229 16.0 15.0 0.00 0.00 0.00 62
20260502041429 59 219 15.0 17.0 0.00 0.00 0.00 60
20260502040931 60 210 15.0 18.0 0.00 0.00 0.00 59
20260502040433 60 224 14.0 10.0 0.00 0.00 0.00 58
20260502035932 60 228 14.0 20.0 0.00 0.00 0.00 57
20260502035435 60 238 14.0 13.0 0.00 0.00 0.00 56
20260502034439 60 221 14.0 18.0 0.00 0.00 0.00 55
20260502033942 60 226 14.0 10.0 0.00 0.00 0.00 54
20260502033444 61 198 13.0 17.0 0.00 0.00 0.00 53
20260502032943 61 224 14.0 14.0 0.00 0.00 0.00 53
20260502032445 61 218 13.0 16.0 0.00 0.00 0.00 52
20260502031947 61 217 9.0 7.0 0.00 0.00 0.00 51
20260502031450 61 221 13.0 14.0 0.00 0.00 0.00 49
20260502030952 62 217 15.0 16.0 0.00 0.00 0.00 49
20260502030454 62 222 16.0 12.0 0.00 0.00 0.00 47
20260502025953 62 226 11.0 12.0 0.00 0.00 0.00 46
20260502025456 62 208 11.0 10.0 0.00 0.00 0.00 45
20260502024958 63 224 10.0 9.0 0.00 0.00 0.00 44
20260502024500 63 208 9.0 14.0 0.00 0.00 0.00 43
20260502024003 63 218 10.0 17.0 0.00 0.00 0.00 42
20260502023505 64 231 9.0 6.0 0.00 0.00 0.00 40
20260502023004 64 211 8.0 5.0 0.00 0.00 0.00 39
20260502022506 65 240 11.0 6.0 0.00 0.00 0.00 38
20260502022008 65 191 7.0 9.0 0.00 0.00 0.00 37
20260502021511 66 214 7.0 7.0 0.00 0.00 0.00 35
20260502021013 66 222 8.0 10.0 0.00 0.00 0.00 33
20260502020515 67 225 8.0 6.0 0.00 0.00 0.00 32
20260502020014 67 194 7.0 11.0 0.00 0.00 0.00 31
20260502015549 68 218 9.0 7.0 0.00 0.00 0.00 30
20260502015517 68 218 9.0 7.0 0.00 0.00 0.00 30
20260502015019 69 225 9.0 11.0 0.00 0.00 0.00 27
20260502014521 69 212 8.0 8.0 0.00 0.00 0.00 26
20260502014023 70 219 13.0 14.0 0.00 0.00 0.00 25
20260502014014 70 226 7.0 3.0 0.00 0.00 0.00 22
20260502013526 70 226 7.0 3.0 0.00 0.00 0.00 22